This is the latest recevied weather packets stored in our database for station/object K4ZZR. If no packets are shown the sender has not sent any weather packets the latest 10 day(s).
| Time | Temp. | Humidity | Pressure | Rain* | Wind** | Luminosity | Snow |
|---|---|---|---|---|---|---|---|
| 1778018026 | 25.56° C | 83% | 1014.3 hPa | 0 mm | - | 225 W/m² | - |
| 1778017723 | 25.56° C | 83% | 1014.3 hPa | 0 mm | - | 191 W/m² | - |
| 1778017421 | 26.11° C | 82% | 1014.3 hPa | 0 mm | - | 263 W/m² | - |
| 1778017117 | 26.11° C | 81% | 1014.5 hPa | 0 mm | - | 370 W/m² | - |
| 1778016815 | 26.11° C | 81% | 1014.4 hPa | 0 mm | - | 387 W/m² | - |
| 1778016511 | 26.11° C | 81% | 1014.6 hPa | 0 mm | - | 389 W/m² | - |
| 1778016208 | 26.11° C | 80% | 1014.4 hPa | 0 mm | - | 435 W/m² | - |
| 1778015904 | 26.11° C | 79% | 1014.5 hPa | 0 mm | - | 507 W/m² | - |
| 1778015602 | 26.11° C | 80% | 1014.5 hPa | 0 mm | - | 417 W/m² | - |
| 1778015299 | 26.11° C | 81% | 1014.4 hPa | 0 mm | - | 460 W/m² | - |
| 1778014995 | 26.11° C | 82% | 1014.5 hPa | 0 mm | - | 257 W/m² | - |
| 1778014693 | 26.11° C | 81% | 1014.7 hPa | 0 mm | - | 518 W/m² | - |
| 1778014391 | 26.67° C | 81% | 1014.6 hPa | 0 mm | - | 352 W/m² | - |
| 1778014087 | 26.11° C | 82% | 1014.4 hPa | 0 mm | - | 364 W/m² | - |
| 1778013785 | 26.11° C | 82% | 1014.5 hPa | 0 mm | - | 278 W/m² | - |
| 1778013482 | 26.11° C | 81% | 1014.6 hPa | 0 mm | - | 622 W/m² | - |
| 1778013179 | 25.56° C | 82% | 1014.6 hPa | 0 mm | - | 219 W/m² | - |
| 1778012875 | 26.11° C | 81% | 1014.6 hPa | 0 mm | - | 625 W/m² | - |
| 1778012571 | 26.11° C | 80% | 1014.6 hPa | 0 mm | - | 722 W/m² | - |
| 1778012268 | 26.11° C | 82% | 1014.6 hPa | 0 mm | - | 250 W/m² | - |
| 1778011965 | 26.11° C | 81% | 1014.5 hPa | 0 mm | - | 639 W/m² | - |
| 1778011664 | 26.11° C | 80% | 1014.7 hPa | 0 mm | - | 587 W/m² | - |
| 1778011361 | 26.67° C | 80% | 1014.8 hPa | 0 mm | - | 710 W/m² | - |
| 1778011055 | 26.11° C | 82% | 1014.7 hPa | 0 mm | - | 658 W/m² | - |
| 1778010754 | 26.11° C | 82% | 1014.9 hPa | 0 mm | - | 230 W/m² | - |
* Rain latest hour (hover to see other rain measurements)
** Current wind speed in m/s (hover to see current wind gust speed)